Simultaneous Nadir Overpasses (SNOs) Predictions

Prediction of SNOs between METOP-B and NPP Satellite Orbit:

Table of predicted SNOs for the next 14.0 days since TLE Epoch: 9/21/2024
Index Date (METOP-B) Time (METOP-B) Lat,Lon (METOP-B) SZA (METOP-B ) Date (NPP) Time (NPP) Lat,Lon (NPP) SZA (NPP ) Distance(km) Time Diff (sec)
1 09/25/2024 00:58:27 -74.25, -22.67 104.77 09/25/2024 00:57:21 -74.24, -25.89 104.66 97.35 66
2 09/25/2024 01:49:11 74.05, 144.15 75.06 09/25/2024 01:48:02 74.02, 141.96 75.12 67.03 69
3 09/25/2024 02:39:55 -73.93, -48.80 105.04 09/25/2024 02:38:45 -73.95, -50.56 104.94 54.44 70
4 09/25/2024 03:30:39 73.72, 118.04 74.78 09/25/2024 03:29:26 73.73, 117.28 74.84 23.85 73
5 09/25/2024 04:21:22 -73.66, -74.78 105.26 09/25/2024 04:20:08 -73.62, -75.14 105.28 12.08 74
6 09/25/2024 05:12:04 73.54, 92.30 74.65 09/25/2024 05:10:52 73.55, 92.34 74.66 1.38 72
7 09/25/2024 06:02:46 -73.53,-100.41 105.35 09/25/2024 06:01:36 -73.53,-100.31 105.34 2.89 70
8 09/25/2024 06:53:25 73.57, 67.01 74.70 09/25/2024 06:52:22 73.56, 66.94 74.70 2.56 63
9 09/25/2024 07:44:07 -73.56,-125.69 105.30 09/25/2024 07:43:06 -73.55,-125.72 105.30 1.36 61
10 09/25/2024 08:34:47 73.54, 41.61 74.70 09/25/2024 08:33:51 73.52, 41.65 74.69 2.56 56
11 09/25/2024 09:25:29 -73.53,-151.09 105.30 09/25/2024 09:24:36 -73.56,-151.12 105.26 3.28 53
12 09/25/2024 10:16:09 73.52, 16.21 74.71 09/25/2024 10:15:21 73.53, 16.25 74.73 2.26 48
13 09/25/2024 11:06:51 -73.50,-176.49 105.30 09/25/2024 11:06:05 -73.52,-176.41 105.27 3.17 46
14 09/25/2024 11:57:30 73.54, -9.07 74.76 09/25/2024 11:56:51 73.55, -9.16 74.77 2.75 39
15 09/25/2024 12:48:12 -73.53, 158.23 105.25 09/25/2024 12:47:35 -73.53, 158.19 105.23 1.26 37
16 09/25/2024 13:38:52 73.52, -34.47 74.76 09/25/2024 13:38:20 73.51, -34.44 74.76 1.02 32
17 09/25/2024 14:29:34 -73.50, 132.83 105.24 09/25/2024 14:29:04 -73.50, 132.90 105.25 2.45 30
18 09/25/2024 15:20:13 73.54, -59.76 74.81 09/25/2024 15:19:50 73.52, -59.85 74.80 3.40 23
19 09/25/2024 16:10:55 -73.53, 107.54 105.19 09/25/2024 16:10:34 -73.51, 107.50 105.21 2.42 21
20 09/25/2024 17:01:35 73.51, -85.16 74.81 09/25/2024 17:01:19 73.49, -85.13 74.79 3.18 16
21 09/25/2024 17:52:17 -73.50, 82.14 105.19 09/25/2024 17:52:04 -73.52, 82.10 105.17 2.67 13
22 09/25/2024 18:42:57 73.49,-110.55 74.82 09/25/2024 18:42:49 73.50,-110.54 74.83 1.29 8
23 09/25/2024 19:33:39 -73.48, 56.75 105.19 09/25/2024 19:33:33 -73.48, 56.81 105.18 2.23 6
24 09/25/2024 20:24:18 73.51,-135.84 74.87 09/25/2024 20:24:19 73.51,-135.94 74.87 3.17 1
25 09/25/2024 21:15:00 -73.50, 31.46 105.14 09/25/2024 21:15:03 -73.50, 31.41 105.14 1.70 3
26 09/25/2024 22:05:40 73.49,-161.24 74.87 09/25/2024 22:05:48 73.47,-161.23 74.85 1.40 8
27 09/25/2024 22:56:22 -73.47, 6.06 105.13 09/25/2024 22:56:32 -73.46, 6.12 105.15 2.40 10
28 09/25/2024 23:47:02 73.46, 173.36 74.87 09/25/2024 23:47:18 73.49, 173.37 74.90 2.95 16
29 09/26/2024 00:37:44 -73.45, -19.34 105.13 09/26/2024 00:38:02 -73.47, -19.28 105.11 3.16 18
30 09/26/2024 01:28:23 73.48, 148.08 74.92 09/26/2024 01:28:48 73.50, 147.97 74.94 3.86 25
31 09/26/2024 02:19:05 -73.47, -44.62 105.08 09/26/2024 02:19:32 -73.48, -44.69 105.07 2.44 27
32 09/26/2024 03:09:45 73.46, 122.68 74.92 09/26/2024 03:10:17 73.46, 122.68 74.92 0.42 32
33 09/26/2024 04:00:27 -73.45, -70.02 105.08 09/26/2024 04:01:01 -73.45, -69.98 105.08 1.46 34
34 09/26/2024 04:51:07 73.43, 97.28 74.93 09/26/2024 04:51:46 73.42, 97.39 74.91 3.58 39
35 09/26/2024 05:41:48 -73.47, -95.31 105.03 09/26/2024 05:42:31 -73.46, -95.38 105.04 2.51 43
36 09/26/2024 06:32:28 73.45, 71.99 74.98 09/26/2024 06:33:16 73.44, 71.99 74.95 2.11 48
37 09/26/2024 07:23:10 -73.44,-120.71 105.02 09/26/2024 07:24:00 -73.42,-120.67 105.06 2.70 50
38 09/26/2024 08:13:50 73.43, 46.59 74.98 09/26/2024 08:14:46 73.45, 46.58 74.99 2.25 56
39 09/26/2024 09:04:32 -73.42,-146.10 105.02 09/26/2024 09:05:30 -73.43,-146.07 105.02 2.18 58
40 09/26/2024 09:55:12 73.40, 21.20 74.98 09/26/2024 09:56:15 73.41, 21.30 74.98 3.30 63
41 09/26/2024 10:45:53 -73.44,-171.39 104.97 09/26/2024 10:47:00 -73.45,-171.47 104.97 2.65 67
42 09/26/2024 11:36:33 73.43, -4.09 75.03 09/26/2024 11:37:45 73.42, -4.11 75.02 0.61 72
43 09/26/2024 12:27:15 -73.42, 163.21 104.97 09/26/2024 12:28:29 -73.41, 163.24 104.99 1.09 74
44 09/26/2024 13:17:59 73.20, -29.93 74.85 09/26/2024 13:19:11 73.24, -29.06 74.84 28.29 72
45 09/26/2024 14:08:43 -73.09, 137.16 105.24 09/26/2024 14:09:54 -73.17, 138.39 105.22 41.04 71
46 09/26/2024 14:59:27 72.87, -55.97 74.58 09/26/2024 15:00:35 72.95, -53.81 74.56 71.37 68
47 09/26/2024 15:50:10 -72.81, 111.23 105.46 09/26/2024 15:51:17 -72.83, 113.75 105.55 82.71 67



Historial Predications of SNOs between METOP-B and NPP
